Live-Position
3D-Globus wird geladen...
Über Starlink 3641
Group: 3 satellites
Beschreibung wird geladen...
Nächste Überflüge
Passes for default location (London). Set your location on the main map for personalized predictions.
Höhenverlauf
Loading altitude history...
No altitude history available
Zweizeiliger Elementsatz
1 51788U 22017W 26127.26816440 .00000519 00000-0 50706-4 0 9997
2 51788 53.2172 86.1540 0001346 93.1228 266.9918 15.08829279232766
Epoch: 7. Mai 2026 •
Age: 6 hours
Aktueller Status
Höhe 546.1 km
Geschwindigkeit 7.59 km/s
Subsatellitenpunkt -21.18°S,
125.27°W
Startdatum 25. Feb. 2022
Alter 4.1 years
Typ internet
Startgruppe
Falcon 9 •
Group 4-11 •
43 satellites
Starlink 3622
51768
Starlink 3621 51769
Starlink 3612 51770
Starlink 3614 51771
Starlink 3623 51772
Starlink 3624 51773
Starlink 3629 51774
Starlink 3620 51775
Starlink 3608 51776
Starlink 3625 51777
Starlink 3615 51778
Starlink 3611 51779
Starlink 3617 51780
Starlink 3580 51781
Starlink 3616 51782
Starlink 3628 51783
Starlink 3632 51784
Starlink 3646 51785
Starlink 3638 51786
Starlink 3619 51787
...and 22 more
Technische Details
Klassifizierung Payload
Masse 297.00 kg
Trockenmasse 275.00 kg
Gesamtmasse 297.00 kg
Länge 0.20 m
Durchmesser 2.80 m
Spannweite 9.00 m
Form Box + pan
Hersteller SPXS
Bus-Typ Starlink
Phasenstatus In Orbit
Besitzer/Staat SPXS/US
Most Searched
Loading...